Location: Haut Kerinec
(48.0623°N, 4.4081°W)
Time: 20:23:36
(UTC+00:00)

Lacrosse 5 - Pass Details

Date: 01 June 2020
Orbit: 714 x 723 km, 57.0° (Epoch: 01 July)

Event Time Altitude Azimuth Distance (km) Brightness Sun altitude
Rises 21:10:45 0° 302° (WNW) 3,122 7.0 -8.5°
Reaches altitude 10° 21:13:18 10° 294° (WNW) 2,199 5.6 -8.7°
Maximum altitude 21:17:49 33° 230° (SW) 1,180 3.0 -9.2°
Drops below altitude 10° 21:22:19 10° 167° (SSE) 2,188 3.8 -9.7°
Enters shadow 21:22:27 - 167° (SSE) 2,233 3.9 -9.7°
